Track STARLINK-3445 now! 10-day predictions STARLINK-3445 is classified as:
1 51717U 22016D 22220.91667824 -.00046534 00000-0 -29218-2 0 9991 2 51717 53.2174 84.4469 0002060 54.0556 26.2098 15.08874513 1306